User: anonymous   Login
Location: Cointrin
(46.2167°N, 6.1167°E)
Time: 22:06:29
(UTC+00:00)
Language:

FENGYUN 1C DEB - Orbit

View from above orbital plane
View from above orbital plane
View from above satellite
View from above satellite

Ground track
Ground track

The orbit data is extracted from the following two-line orbital elements,

1 30117U 99025RW  24056.93543775  .00000685  00000-0  39191-3 0  9992
2 30117  98.7658  58.1277 0165293 254.6532 122.5941 14.06132421877695
Epoch (UTC): 25 February 2024 22:27:01
Eccentricity: 0.0165293
inclination: 98.7658°
perigee height: 753 km
apogee height: 992 km
right ascension of ascending node: 58.1277°
argument of perigee: 254.6532°
revolutions per day: 14.06132421
mean anomaly at epoch: 122.5941°
orbit number at epoch: 87769

The dashed part of the orbit path shows where the satellite is in the earth's shadow,  

DLR